This demonstration page uses our WeatherBlox Daily Observations layout. Learn more.

Left ArrowRight Arrow

47.50024, -111.30081

Hourly Observations for April 26, 2020

Temp ( °F °C ) Dew Point ( °F °C ) Humidity (%) Winds ( mph kmh ) Pressure ( in mb ) Visibility ( mi km ) Precip ( " mm )
12:53 am 00:53 Clear 50 10 29 -1.7 44 44 SW 20 31 29.84 1010 10 16 0.00 0.00
1:53 am 01:53 Clear 49 9.4 28 -2.2 44 44 SW 28 44 29.83 1010 10 16 0.00 0.00
2:53 am 02:53 Clear 48 8.9 29 -1.7 48 48 SW 23 37 29.85 1011 10 16 0.00 0.00
3:53 am 03:53 Clear 46 7.8 29 -1.7 51 51 SSW 13 20 29.88 1012 10 16 0.00 0.00
4:53 am 04:53 Clear 47 8.3 29 -1.7 50 50 SW 18 30 29.85 1011 10 16 0.00 0.00
5:53 am 05:53 Clear 48 8.9 28 -2.2 46 46 SW 21 33 29.85 1011 10 16 0.00 0.00
6:53 am 06:53 Sunny 48 8.9 28 -2.2 46 46 SSW 15 24 29.88 1012 10 16 0.00 0.00
7:53 am 07:53 Sunny 49 9.4 28 -2.2 44 44 SSW 22 35 29.88 1012 10 16 0.00 0.00
8:53 am 08:53 Sunny 53 11.7 27 -2.8 37 37 SW 23 37 29.92 1013 10 16 0.00 0.00
9:53 am 09:53 Sunny 55 12.8 26 -3.3 33 33 SW 25 41 29.91 1013 10 16 0.00 0.00
10:53 am 10:53 Sunny 57 13.9 24 -4.4 28 28 WSW 20 31 29.90 1013 10 16 0.00 0.00
11:53 am 11:53 Sunny 59 15 24 -4.4 26 26 SW 22 35 29.91 1013 10 16 0.00 0.00
12:53 pm 12:53 Sunny 61 16.1 21 -6.1 21 21 SW 20 31 29.90 1013 10 16 0.00 0.00
1:53 pm 13:53 Sunny 62 16.7 19 -7.2 19 19 WSW 17 28 29.89 1012 10 16 0.00 0.00
2:53 pm 14:53 Sunny 65 18.3 19 -7.2 17 17 W 20 31 29.88 1012 10 16 0.00 0.00
3:53 pm 15:53 Sunny 65 18.3 16 -8.9 15 15 W 23 37 29.88 1012 10 16 0.00 0.00
4:53 pm 16:53 Sunny 65 18.3 15 -9.4 14 14 W 18 30 29.88 1012 10 16 0.00 0.00
5:53 pm 17:53 Sunny 64 17.8 16 -8.9 15 15 W 16 26 29.88 1012 10 16 0.00 0.00
6:53 pm 18:53 Sunny 61 16.1 16 -8.9 17 17 W 15 24 29.90 1013 10 16 0.00 0.00
7:53 pm 19:53 Sunny 53 11.7 21 -6.1 28 28 W 8 13 29.93 1014 10 16 0.00 0.00
8:53 pm 20:53 Clear 53 11.7 20 -6.7 27 27 W 14 22 29.91 1013 10 16 0.00 0.00
9:53 pm 21:53 Clear 51 10.6 19 -7.2 28 28 W 7 11 29.93 1014 10 16 0.00 0.00
10:53 pm 22:53 Clear 46 7.8 22 -5.6 38 38 SW 7 11 29.94 1014 10 16 0.00 0.00
11:53 pm 23:53 Clear 47 8.3 24 -4.4 41 41 SW 6 9 29.93 1014 10 16 0.00 0.00

Powered by AerisWeather